FENGYUN 1C DEB, 35155

Orbit data source: Space-Track

FENGYUN 1C DEB, 35155 is space debris in SSO originally from a launch on Mon, 10 May 1999 UTC launched from the Taiyaun Space Center, China (TSC). Fengyun 1C debris stems from the Chinese weather satellite Fengyun-1C, which was intentionally destroyed by a Chinese anti-satellite missile in 2007. This event dramatically increased the amount of space debris, with thousands of trackable fragments posing hazards to satellites and human spaceflight. The Fengyun 1C debris cloud has become a focal point in discussions about space sustainability and the need for international regulations to prevent the creation of new debris.

Loading next visibility...
Identifier
35155, 1999-025DMK
Orbit
SSO
Country
Flag of CNCN / PRC
Related business
Manufacturer
Unknown
Mission
Spacecraft
Bus & Motor
Unknown
Mass
Unknown
Launch date (UTC)
1999-05-10 (27 years ago)
Launch vehicle
Unknown
Launch site
Taiyaun Space Center, China (TSC)
Object type
Payload
Rocket body
Debris
Shape & HBR
Unknown shape, 0.1 m
Radar Cross Section
Small (<0.1 m²)

Expand to show TLE details & history
Last TLE update: 5 days ago

TLE from 5 days ago
0 FENGYUN 1C DEB
1 35155U 99025DMK 26250.73004630  .00000757  00000-0  37507-3 0  9996
2 35155  98.4980 256.6131 0025590  15.8476 344.3496 14.19892175765306
Epoch: 2026-09-07T17:31Z
TLE epoch observation values (Epoch: 2026-09-07T17:31:16.000Z)
Latitude
-0.00004°
Longitude
6.98982°
Altitude
810.887 km
Speed
7.457 km/s
True Right ascension
17h 06m 27s
True Declination
0° 00' 00"
Sunlit
Object was in daylight at epoch
Visualization orbit readout
Latitude
Unknown
Longitude
Unknown
Altitude
Unknown
Speed
Unknown
Apparent Right ascension
Unknown
Apparent Declination
Unknown
Sunlit
N/A
Visualization observer readout
Local Sidereal Time
02:12:51
Azimuth
Unknown
Elevation
Unknown
Doppler factor
Unknown
Orbital elements
Apogee altitude
841.294 km
Perigee altitude
804.439 km
Semi-major axis
7,201.003 km
Eccentricity
0.00256
Inclination
98.498°
RAAN
256.6131°
Arg. of periapsis
15.8476°
True anomaly
344.27025°
Mean anomaly
344.3496°
Eccentric anomaly
344.30995°
Mean motion
3.55184 °/min
Orbital period
101.36 mins
BSTAR
0.00037507
Loading maneuver chart data...
Computing Atmospheric mass density...

Documentation

Showing up to 5 results
|